Zurück zum Katalog

CZ-4C DEB

AktivSSO
NORAD 38658·DEBRIS·🇨🇳 China

Gestartet Dec 15, 2009 von Taiyuan Satellite Launch Center

Loading…

Nächste Überflüge (nächste 24 Stunden)

TLE

AktuellSource: Space-Track

Epoche: Sep 13, 2026, 13:45 UTC

1 38658U 09072F   26256.57341633  .00000375  00000-0  12351-2 0  9990
2 38658 100.5934 179.2763 0134578 245.9398 237.0996 13.05472038789459

Verfolge CZ-4C DEB in Echtzeit mit AllMySat

Download on the App Store